Regional Weather Roundup
Issued by NWS

Home | Current Version | Previous Version | Text Only | Print | Product List | Glossary Off
Versions: 1 2 3 4 5 6 7 8 9 10 11 12 13 14 15 16 17 18 19 20 21 22 23 24 25 26 27 28 29 30 31 32 33 34 35 36 37 38 39 40 41 42 43 44 45 46 47 48 49 50

549
ASUS43 KLMK 251702
RWRKY
KENTUCKY REGIONAL WEATHER ROUNDUP
NATIONAL WEATHER SERVICE LOUISVILLE KY
100 PM EDT SUN JUN 25 2017

NOTE "FAIR" INDICATES FEW OR NO CLOUDS BELOW 12,000 FEET
WITH NO SIGNIFICANT WEATHER AND/OR OBSTRUCTIONS TO VISIBILITY.

KYZ001>023-026-027-061>063-070>075-251800-
WESTERN AND SOUTH CENTRAL KENTUCKY

CITY           SKY/WX    TMP DP  RH WIND       PRES   REMARKS
PADUCAH        SUNNY     80  51  36 W10       30.23F
HENDERSON      SUNNY     80  51  36 W13G18    30.21F
OWENSBORO      SUNNY     80  51  36 W17       30.20F
HOPKINSVILLE   SUNNY     78  50  37 W6        30.23F
BOWLING GREEN  SUNNY     78  49  35 W6        30.23F
GLASGOW        NOT AVBL
$$

KYZ024-025-028>034-038-045-046-053-251800-
NORTH CENTRAL KENTUCKY

CITY           SKY/WX    TMP DP  RH WIND       PRES   REMARKS
LOUISVILLE/SDF MOSUNNY   81  47  30 W18G25    30.18F
LOUISVILLE/LOU MOSUNNY   80  48  32 W12G23    30.18F
FORT KNOX      SUNNY     77  50  38 W14       30.19F
$$

KYZ035>037-039>044-047>052-055>060-089>105-251800-
NORTHEAST KENTUCKY

CITY           SKY/WX    TMP DP  RH WIND       PRES   REMARKS
LEXINGTON      SUNNY     76  48  37 SW14      30.20F
COVINGTON      MOSUNNY   76  50  40 W14G25    30.15F
FRANKFORT      SUNNY     78  49  35 VRB7      30.18F
$$

KYZ054-064>069-076>088-106>120-251800-
SOUTHEAST KENTUCKY

CITY           SKY/WX    TMP DP  RH WIND       PRES   REMARKS
JACKSON        SUNNY     75  51  43 W6        30.22S
LONDON         SUNNY     75  41  29 W9        30.22F
SOMERSET       SUNNY     73  41  31 W6        30.24S
MIDDLESBORO    MOSUNNY   76  53  44 NW9       30.23S
MONTICELLO     SUNNY     76  51  41 N12       30.25S
$$





USA.gov is the U.S. government's official web portal to all federal, state and local government web resources and services.